When you browse on this site, cookies collect data to enhance your experience and personalize the content and advertising you see.
Visit our Privacy Policy to learn more. By continuing to use the site, you agree to this use of cookies and data.
  • In Spain
  • List of Countries
  • For 7 days
  • Water Temperature
  • Satellite Maps
  • Weather Map
  • Weather Widgets
  • user-avatar
    Login

    Hourly Weather Bangi

    Today, 16 June, Sunday

    Time Temperature Precipitation Wind Pressure Humidity
    00:00 +24°C° 0.6 mm 2 mps 730 mmHg 97%
    01:00 +24°C° 0 mm 1 mps 729 mmHg 97%
    02:00 +22°C° 0 mm 0 mps 729 mmHg 97%
    03:00 +21°C° 0 mm 0 mps 729 mmHg 97%
    04:00 +21°C° 0 mm 0 mps 729 mmHg 97%
    05:00 +22°C° 0.1 mm 0 mps 729 mmHg 97%
    06:00 +22°C° 0.1 mm 0 mps 730 mmHg 96%
    07:00 +23°C° 0 mm 0 mps 730 mmHg 95%
    08:00 +25°C° 0 mm 0 mps 730 mmHg 87%
    09:00 +28°C° 0 mm 1 mps 730 mmHg 79%
    10:00 +30°C° 0 mm 1 mps 730 mmHg 71%
    11:00 +31°C° 0 mm 1 mps 730 mmHg 66%
    12:00 +32°C° 0 mm 1 mps 729 mmHg 62%
    13:00 +34°C° 0 mm 1 mps 729 mmHg 57%
    14:00 +33°C° 0.5 mm 1 mps 728 mmHg 65%
    15:00 +31°C° 0.5 mm 1 mps 727 mmHg 74%
    16:00 +30°C° 0.5 mm 1 mps 727 mmHg 82%
    17:00 +29°C° 0.3 mm 1 mps 727 mmHg 85%
    18:00 +27°C° 0.3 mm 1 mps 728 mmHg 88%
    19:00 +24°C° 0.3 mm 0 mps 728 mmHg 91%
    20:00 +24°C° 1.8 mm 0 mps 729 mmHg 92%
    21:00 +23°C° 1.8 mm 0 mps 729 mmHg 93%
    22:00 +23°C° 1.8 mm 0 mps 730 mmHg 94%
    23:00 +22°C° 1.3 mm 0 mps 730 mmHg 95%

    Tomorrow, 17 June, Monday

    Time Temperature Precipitation Wind Pressure Humidity
    00:00 +22°C° 1.3 mm 0 mps 730 mmHg 96%
    01:00 +22°C° 1.3 mm 0 mps 729 mmHg 98%
    02:00 +22°C° 0.9 mm 0 mps 729 mmHg 98%
    03:00 +22°C° 0.9 mm 0 mps 729 mmHg 98%
    04:00 +22°C° 0.9 mm 0 mps 729 mmHg 98%
    05:00 +22°C° 0 mm 0 mps 729 mmHg 97%
    06:00 +22°C° 0 mm 0 mps 730 mmHg 97%
    07:00 +23°C° 0 mm 0 mps 730 mmHg 96%
    08:00 +26°C° 0.5 mm 1 mps 730 mmHg 94%
    09:00 +27°C° 0.5 mm 1 mps 731 mmHg 91%
    10:00 +27°C° 0.5 mm 1 mps 731 mmHg 89%
    11:00 +28°C° 0.3 mm 1 mps 730 mmHg 87%
    12:00 +28°C° 0.3 mm 1 mps 730 mmHg 85%
    13:00 +29°C° 0.3 mm 1 mps 729 mmHg 82%
    14:00 +28°C° 0.6 mm 1 mps 729 mmHg 86%
    15:00 +27°C° 0.6 mm 1 mps 728 mmHg 89%
    16:00 +26°C° 0.6 mm 1 mps 728 mmHg 92%
    17:00 +25°C° 0 mm 1 mps 728 mmHg 92%
    18:00 +25°C° 0 mm 1 mps 728 mmHg 92%
    19:00 +22°C° 0 mm 0 mps 729 mmHg 92%
    20:00 +22°C° 0 mm 0 mps 729 mmHg 93%
    21:00 +22°C° 0 mm 0 mps 729 mmHg 93%
    22:00 +22°C° 0 mm 0 mps 730 mmHg 93%
    23:00 +22°C° 0 mm 0 mps 730 mmHg 93%

    Day after tomorrow, 18 June, Tuesday

    Time Temperature Precipitation Wind Pressure Humidity
    00:00 +22°C° 0 mm 0 mps 730 mmHg 94%
    01:00 +22°C° 0 mm 0 mps 730 mmHg 95%
    02:00 +21°C° 0.1 mm 0 mps 730 mmHg 95%
    03:00 +21°C° 0.1 mm 0 mps 730 mmHg 96%
    04:00 +21°C° 0.1 mm 0 mps 730 mmHg 97%
    05:00 +22°C° 0 mm 0 mps 730 mmHg 96%
    06:00 +22°C° 0 mm 0 mps 731 mmHg 95%
    07:00 +23°C° 0 mm 0 mps 731 mmHg 95%
    08:00 +24°C° 0.1 mm 0 mps 731 mmHg 92%
    09:00 +25°C° 0.1 mm 0 mps 732 mmHg 89%
    10:00 +26°C° 0.1 mm 0 mps 732 mmHg 85%
    11:00 +26°C° 0.6 mm 0 mps 731 mmHg 84%
    12:00 +27°C° 0.6 mm 0 mps 730 mmHg 82%
    13:00 +27°C° 0.6 mm 0 mps 730 mmHg 81%
    14:00 +27°C° 1 mm 0 mps 729 mmHg 80%
    15:00 +28°C° 1 mm 0 mps 729 mmHg 80%
    16:00 +28°C° 1 mm 0 mps 728 mmHg 80%
    17:00 +26°C° 0.4 mm 0 mps 728 mmHg 83%
    18:00 +25°C° 0.4 mm 0 mps 728 mmHg 86%
    19:00 +23°C° 0.4 mm 0 mps 729 mmHg 90%
    20:00 +23°C° 0 mm 0 mps 729 mmHg 91%
    21:00 +22°C° 0 mm 0 mps 729 mmHg 92%
    22:00 +22°C° 0 mm 0 mps 729 mmHg 93%
    23:00 +22°C° 0 mm 0 mps 729 mmHg 94%

    19 June, Wednesday

    Time Temperature Precipitation Wind Pressure Humidity
    00:00 +22°C° 0 mm 0 mps 729 mmHg 94%
    01:00 +21°C° 0 mm 0 mps 729 mmHg 95%
    02:00 +21°C° 0 mm 0 mps 729 mmHg 95%
    03:00 +21°C° 0 mm 0 mps 729 mmHg 96%
    04:00 +21°C° 0 mm 0 mps 729 mmHg 96%
    05:00 +21°C° 0 mm 0 mps 729 mmHg 95%
    06:00 +22°C° 0 mm 0 mps 730 mmHg 95%
    07:00 +23°C° 0 mm 0 mps 730 mmHg 94%
    08:00 +25°C° 0 mm 0 mps 731 mmHg 85%
    09:00 +28°C° 0 mm 0 mps 731 mmHg 75%
    10:00 +30°C° 0 mm 0 mps 731 mmHg 65%
    11:00 +31°C° 0 mm 0 mps 730 mmHg 62%
    12:00 +31°C° 0 mm 0 mps 729 mmHg 58%
    13:00 +34°C° 0 mm 1 mps 728 mmHg 55%
    14:00 +33°C° 0.2 mm 1 mps 728 mmHg 60%
    15:00 +33°C° 0.2 mm 1 mps 727 mmHg 65%
    16:00 +32°C° 0.2 mm 1 mps 727 mmHg 71%
    17:00 +30°C° 0.4 mm 1 mps 727 mmHg 76%
    18:00 +28°C° 0.4 mm 1 mps 728 mmHg 81%
    19:00 +26°C° 0.4 mm 1 mps 728 mmHg 87%
    20:00 +24°C° 0 mm 0 mps 728 mmHg 87%
    21:00 +24°C° 0 mm 0 mps 729 mmHg 87%
    22:00 +24°C° 0 mm 0 mps 729 mmHg 87%
    23:00 +24°C° 0 mm 0 mps 729 mmHg 88%

    20 June, Thursday

    Time Temperature Precipitation Wind Pressure Humidity
    00:00 +23°C° 0 mm 0 mps 729 mmHg 90%
    01:00 +23°C° 0 mm 0 mps 729 mmHg 91%
    02:00 +23°C° 0.1 mm 0 mps 729 mmHg 92%
    03:00 +23°C° 0.1 mm 0 mps 729 mmHg 93%
    04:00 +23°C° 0.1 mm 0 mps 728 mmHg 94%
    05:00 +23°C° 0.5 mm 0 mps 729 mmHg 94%
    06:00 +23°C° 0.5 mm 0 mps 729 mmHg 93%
    07:00 +24°C° 0.5 mm 0 mps 730 mmHg 93%
    08:00 +25°C° 0.9 mm 0 mps 730 mmHg 91%
    09:00 +28°C° 0.9 mm 1 mps 730 mmHg 89%
    10:00 +28°C° 0.9 mm 1 mps 730 mmHg 86%
    11:00 +29°C° 1 mm 1 mps 729 mmHg 82%
    12:00 +30°C° 1 mm 1 mps 729 mmHg 77%
    13:00 +31°C° 1 mm 1 mps 728 mmHg 72%
    14:00 +31°C° 0.9 mm 1 mps 728 mmHg 74%
    15:00 +31°C° 0.9 mm 1 mps 727 mmHg 75%
    16:00 +31°C° 0.9 mm 1 mps 727 mmHg 76%
    17:00 +27°C° 0.9 mm 0 mps 727 mmHg 81%
    18:00 +26°C° 0.9 mm 0 mps 728 mmHg 85%
    19:00 +24°C° 0.9 mm 0 mps 728 mmHg 90%
    20:00 +24°C° 0.1 mm 0 mps 728 mmHg 90%
    21:00 +24°C° 0.1 mm 0 mps 729 mmHg 91%
    22:00 +23°C° 0.1 mm 0 mps 729 mmHg 91%
    23:00 +23°C° 0 mm 0 mps 729 mmHg 92%

    21 June, Friday

    Time Temperature Precipitation Wind Pressure Humidity
    00:00 +23°C° 0 mm 0 mps 729 mmHg 94%
    01:00 +23°C° 0 mm 0 mps 728 mmHg 95%
    02:00 +24°C° 1 mm 1 mps 728 mmHg 96%
    03:00 +24°C° 1 mm 1 mps 729 mmHg 97%
    04:00 +24°C° 1 mm 1 mps 729 mmHg 97%
    05:00 +24°C° 1.5 mm 1 mps 729 mmHg 97%
    06:00 +24°C° 1.5 mm 1 mps 729 mmHg 97%
    07:00 +24°C° 1.5 mm 1 mps 730 mmHg 97%
    08:00 +26°C° 0.1 mm 1 mps 730 mmHg 92%
    09:00 +27°C° 0.1 mm 1 mps 730 mmHg 87%
    10:00 +28°C° 0.1 mm 2 mps 730 mmHg 81%
    11:00 +29°C° 1.5 mm 1 mps 730 mmHg 83%
    12:00 +29°C° 1.5 mm 1 mps 729 mmHg 85%
    13:00 +27°C° 1.5 mm 0 mps 729 mmHg 87%
    14:00 +26°C° 1.4 mm 0 mps 728 mmHg 89%
    15:00 +27°C° 1.4 mm 1 mps 728 mmHg 91%
    16:00 +27°C° 1.4 mm 1 mps 728 mmHg 92%
    17:00 +26°C° 0 mm 1 mps 728 mmHg 93%
    18:00 +25°C° 0 mm 1 mps 728 mmHg 94%
    19:00 +25°C° 0 mm 1 mps 728 mmHg 94%
    20:00 +22°C° 0 mm 0 mps 729 mmHg 95%
    21:00 +22°C° 0 mm 0 mps 729 mmHg 95%
    22:00 +22°C° 0 mm 0 mps 729 mmHg 96%
    23:00 +22°C° 0 mm 0 mps 729 mmHg 96%
    Show more